Location: Strawberry
(45.6646°N, 111.9596°W)
Time: 19:52:02
(UTC+00:00)

Vanguard 1 Rocket - Pass Details

Date: 10 October 2022
Orbit: 650 x 4225 km, 34.3° (Epoch: 01 December)

Event Time Altitude Azimuth Distance (km) Brightness Sun altitude
Rises 21:45:41 0° 191° (S) 7,960 13.0 27.6°
Reaches altitude 10° 21:53:01 10° 178° (S) 7,253 12.7 26.7°
Maximum altitude 22:10:18 23° 136° (SE) 6,228 11.8 24.5°
Drops below altitude 10° 22:25:50 10° 94° (E) 6,616 11.4 22.3°
Sets 22:31:49 0° 82° (E) 7,162 11.5 21.5°
